User: anonymous   Login
Location: Grange Verzio
(44.5000°N, 6.9833°E)
Time: 21:45:21
(UTC+00:00)
Language:

FENGYUN 1C DEB - Orbit

View from above orbital plane
View from above orbital plane
View from above satellite
View from above satellite

Ground track
Ground track

The orbit data is extracted from the following two-line orbital elements,

1 31741U 99025CEQ 24044.93413700  .00004625  00000-0  16727-2 0  9994
2 31741  99.0802 299.1595 0193927 199.9119 159.4416 14.24071206865585
Epoch (UTC): 13 February 2024 22:25:09
Eccentricity: 0.0193927
inclination: 99.0802°
perigee height: 672 km
apogee height: 951 km
right ascension of ascending node: 299.1595°
argument of perigee: 199.9119°
revolutions per day: 14.24071206
mean anomaly at epoch: 159.4416°
orbit number at epoch: 86558

The dashed part of the orbit path shows where the satellite is in the earth's shadow,  

DLR